User: anonymous   Login
Location: ??
(35.5052°N, 139.7262°E)
Time: 13:02:28
(UTC+00:00)
Language:

MINOTAUR 4 R/B - Orbit

View from above orbital plane
View from above orbital plane
View from above satellite
View from above satellite

Ground track
Ground track

The orbit data is extracted from the following two-line orbital elements,

1 37169U 10048B   21266.12479729  .00001973  00000-0  72085-4 0  9993
2 37169  97.9722  51.9355 0007097  82.6808 277.5237 15.29457395610557
Epoch (UTC): 23 September 2021 02:59:42
Eccentricity: 0.0007097
inclination: 97.9722°
perigee height: 472 km
apogee height: 482 km
right ascension of ascending node: 51.9355°
argument of perigee: 82.6808°
revolutions per day: 15.29457395
mean anomaly at epoch: 277.5237°
orbit number at epoch: 61055

The dashed part of the orbit path shows where the satellite is in the earth's shadow,  

DLR